Miscellaneous Local Product
Issued by NWS North Platte, NE

Home | Current Version | Previous Version | Graphics & Text | Print | Product List | Glossary On
Versions: 1 2 3 4 5 6 7 8 9 10 11 12 13 14 15 16 17 18 19 20 21 22 23 24 25 26 27 28 29 30 31 32 33 34 35 36 37 38 39 40 41 42 43 44 45 46 47 48 49 50
000
AXUS43 KLBF 290510
MISLBF


WESTERN AND NORTH CENTRAL NEBRASKA HOURLY WEATHER ROUNDUP
NATIONAL WEATHER SERVICE NORTH PLATTE NE
1200 AM CDT WED JUL 29 2015

***STATIONS NOT REPORTING VARIABLES SUCH AS SKY/WEATHER OR
PRESSURE ARE PROVIDED BY THE NEBRASKA DEPARTMENT OF
ROADS...RAWS...AND APRS NETWORKS...AND ARE NOT UNDER
NATIONAL WEATHER SERVICE QUALITY CONTROL***

...OBSERVATIONS IN AND NEAR THE EASTERN PANHANDLE OF NEBRASKA...

CITY           SKY/WX    TMP DP  RH WIND       PRES   REMARKS
PINE RIDGE     CLEAR     52  43  71 CALM      30.21R
CHADRON        CLEAR     53  43  68 CALM      30.21R
ALLIANCE       CLEAR     54  43  66 N3        30.21R
SIDNEY         PTCLDY    58  40  51 SE3       30.24R
BIG SPRINGS      N/A     56  52  88 CALM        N/A
$$

...OBSERVATIONS IN NORTH CENTRAL NEBRASKA...

CITY           SKY/WX    TMP DP  RH WIND       PRES   REMARKS
VALENTINE      CLEAR     64  46  52 N8        30.15R
THEDFORD       CLEAR     59  52  78 W3        30.16R
AINSWORTH      CLEAR     59  50  71 N8        30.15R
O`NEILL        CLEAR     62  59  90 CALM      30.11R
ORD            CLEAR     60  56  86 CALM      30.09R
BROKEN BOW     CLEAR     62  47  57 N7        30.12R
SPRINGVIEW       N/A     63  54  72 CALM        N/A
CHAMBERS         N/A     60  53  78 CALM        N/A
EWING            N/A     58  55  90 CALM        N/A
$$

...OBSERVATIONS IN SOUTHWEST NEBRASKA AND FAR NORTHEAST COLORADO...

CITY           SKY/WX    TMP DP  RH WIND       PRES   REMARKS
WRAY           FAIR      61  49  63 CALM      30.19R
HOLYOKE        FAIR      61  52  72 CALM      30.20R
IMPERIAL       CLEAR     62  49  62 CALM      30.17R
OGALLALA       CLEAR     59  52  77 CALM      30.17R
NORTH PLATTE   CLEAR     59  50  72 W3        30.14R
MCCOOK         CLEAR     64  52  64 N9        30.12R
LEXINGTON      CLEAR     60  57  87 CALM      30.11R
PAXTON           N/A     61  56  83 CALM        N/A
BRADY            N/A     61  51  70 CALM        N/A
CALLAWAY         N/A     56  53  90 N5          N/A
$$

...NORTH PLATTE AREA...

CITY           SKY/WX    TMP DP  RH WIND       PRES   REMARKS
AIRPORT        CLEAR     59  50  72 W3        30.14R
DOWNTOWN         N/A     64  50  61 CALM        N/A
SANDRIDGE        N/A     64  52  65 CALM        N/A
HILLCREST        N/A     67  46  47 NE6         N/A
$$

...SOME WEATHER OBSERVATIONS FROM AROUND THE REGION...

CITY           SKY/WX    TMP DP  RH WIND       PRES   REMARKS
DENVER         PTCLDY    63  40  42 SE9       30.28R
LARAMIE        PTCLDY    58  17  20 NE5       30.39R
CHEYENNE       CLOUDY    65  31  28 E3        30.34R
SCOTTSBLUFF    CLEAR     58  44  60 NE9       30.22R
RAPID CITY     CLEAR     57  44  62 NW8       30.17R
PIERRE         CLEAR     66  47  50 W8        30.04R
WINNER         FAIR      65  49  56 W6        30.11R
SIOUX FALLS    CLEAR     62  58  86 W3        30.05R
OMAHA          MOCLDY    73  64  73 N7        30.03R
GRAND ISLAND   CLEAR     61  57  87 NE6       30.08R
KANSAS CITY    CLOUDY    84  72  67 SW9       29.94R
WICHITA        PTCLDY    84  68  58 S10       29.96R
HAYS           MOCLDY    73  55  53 N8        30.06R
LIBERAL        CLOUDY    77  61  57 N10       30.08R
GOODLAND       MOCLDY    61  51  70 N5        30.17S
$$



USA.gov is the U.S. government's official web portal to all federal, state and local government web resources and services.